CMA-CGM Fort Saint Pierre — FQFM — position and weather

sailwx.info

Track history (hours):
 
Tides and Currents Weather Stations Pressure Air Temp Water Temp Dewpoint Dewpoint Depression Visibility Wind Speed Wind Dir Waves Ship Positions

CMA-CGM Fort Saint Pierre

Last reported at 2014-Oct-30 01:29 UTC. Time now 2014-Nov-01 03:54 UTC.
Position N 37°03' W 030°09'.

Length 197 m; beam 30 m.

Type: Ship (hazmat cat A). MMSI: 226328000.

Date/timePositionNaut miles runAvg speedWind from/ knotsBaromVisibWave heightAir tempDewpointWater temp
2014-Oct-30 01:29N 37°03' W 030°09'1920.6
2014-Oct-30 00:33N 37°12' W 029°48'2020.1
2014-Oct-29 23:33N 37°22' W 029°26'2020.4
2014-Oct-29 22:33N 37°31' W 029°03'2020.0
2014-Oct-29 21:33N 37°41' W 028°41'2019.9
2014-Oct-29 20:34N 37°51' W 028°19'2019.7
2014-Oct-29 19:33N 38°00' W 027°57'2020.0
2014-Oct-29 18:33N 38°10' W 027°35'2020.1
2014-Oct-29 17:33N 38°19' W 027°12'2019.9
2014-Oct-29 16:33N 38°28' W 026°50'2019.9
2014-Oct-29 15:33N 38°37' W 026°27'2019.8
2014-Oct-29 14:33N 38°46' W 026°04'2020.0
2014-Oct-29 13:33N 38°54' W 025°41'90120.0
2014-Oct-27 16:33N 45°25' W 007°26'1919.4
2014-Oct-27 15:33N 45°33' W 007°01'2019.9
2014-Oct-27 14:34N 45°42' W 006°35'2819.3
2014-Oct-27 13:06N 45°54' W 005°59'1319.1
2014-Oct-27 12:27N 45°60' W 005°43'1819.8
2014-Oct-27 11:34N 46°08' W 005°20'2019.9
2014-Oct-27 10:33N 46°16' W 004°54'2020.1
2014-Oct-27 09:33N 46°25' W 004°28'2120.8
2014-Oct-27 08:33N 46°34' W 004°01'2020.5
2014-Oct-27 07:34N 46°43' W 003°34'2020.2
2014-Oct-27 06:33N 46°52' W 003°07'2020.0
2014-Oct-27 05:33N 47°00' W 002°41'1616.1
2014-Oct-27 04:34N 47°08' W 002°20'1211.9
2014-Oct-27 03:32N 47°18' W 002°09'0 0.0
2014-Oct-27 01:03N 47°18' W 002°09'0 0.0
2014-Oct-26 08:34N 47°18' W 002°09'0 0.0
2014-Oct-26 05:27N 47°18' W 002°09'12 1.9
2014-Oct-25 23:19N 47°09' W 002°20'2514.1
2014-Oct-25 21:33N 47°04' W 002°56'2120.6
2014-Oct-25 20:33N 47°13' W 003°24'4220.9
2014-Oct-25 18:34N 47°35' W 004°16'2121.1
2014-Oct-25 17:33N 47°47' W 004°42'2121.0
2014-Oct-25 16:34N 47°58' W 005°08'2020.0
2014-Oct-25 15:33N 48°12' W 005°30'12217.0
2014-Oct-25 08:24N 49°45' W 003°31'1619.4
2014-Oct-25 07:33N 49°53' W 003°09'4619.4
2014-Oct-25 05:12N 50°03' W 002°00'1721.2
2014-Oct-25 04:24N 49°56' W 001°36'4523.5
2014-Oct-25 02:30N 49°39' W 000°32'1819.2
2014-Oct-25 01:33N 49°32' W 000°07'1110.9
2014-Oct-25 00:34N 49°28' E 000°09'0 0.0
2014-Oct-24 23:33N 49°28' E 000°09'0 0.0
2014-Oct-24 22:33N 49°28' E 000°09'0 0.0
2014-Oct-24 21:33N 49°28' E 000°09'0 0.0
2014-Oct-24 20:33N 49°28' E 000°09'0 0.0
2014-Oct-24 19:33N 49°28' E 000°09'0 0.0
2014-Oct-24 18:33N 49°28' E 000°09'0 0.0
2014-Oct-24 17:33N 49°28' E 000°09'0 0.0
2014-Oct-24 16:33N 49°28' E 000°09'0 0.0
2014-Oct-24 15:33N 49°28' E 000°09'0 0.0
2014-Oct-24 14:33N 49°28' E 000°09'0 0.0
2014-Oct-24 13:33N 49°28' E 000°09'0 0.0
2014-Oct-24 12:33N 49°28' E 000°09'0 0.0
2014-Oct-24 11:33N 49°28' E 000°09'0 0.0
2014-Oct-24 10:33N 49°28' E 000°09'0 0.0
2014-Oct-24 09:33N 49°28' E 000°09'0 0.0
2014-Oct-24 08:33N 49°28' E 000°09'0 0.0
2014-Oct-24 07:33N 49°28' E 000°09'0 0.0
2014-Oct-24 06:33N 49°28' E 000°09'0 0.0
2014-Oct-24 05:30N 49°28' E 000°09'0 0.0
2014-Oct-24 04:33N 49°28' E 000°09'0 0.0
2014-Oct-24 03:33N 49°28' E 000°09'0 0.0
2014-Oct-24 02:33N 49°28' E 000°09'0 0.0
2014-Oct-24 01:33N 49°28' E 000°09'0 0.0
2014-Oct-24 00:33N 49°28' E 000°09'0 0.0
2014-Oct-23 23:33N 49°28' E 000°09'1 1.0
2014-Oct-23 22:33N 49°28' E 000°08'2 2.3
2014-Oct-23 21:33N 49°26' E 000°07'1212.1
2014-Oct-23 20:33N 49°27' E 000°26'7 6.4
2014-Oct-23 19:28N 49°26' E 000°36'3 0.2
2014-Oct-22 20:33N 49°28' E 000°32'1211.8
2014-Oct-22 19:33N 49°26' E 000°14'1211.6
2014-Oct-22 18:34N 49°28' W 000°03'1211.8
2014-Oct-22 17:34N 49°39' W 000°11'4521.6
2014-Oct-22 15:28N 50°24' W 000°06'2122.6
2014-Oct-22 14:34N 50°33' E 000°23'2922.5
2014-Oct-22 13:17N 50°48' E 001°02'1521.3
2014-Oct-22 12:34N 50°57' E 001°21'1515.2
2014-Oct-22 11:34N 51°02' E 001°44'1515.5
2014-Oct-22 10:33N 51°03' E 002°09'3 2.4
2014-Oct-22 09:30N 51°01' E 002°11'0 0.0
2014-Oct-22 08:33N 51°01' E 002°11'0 0.0
2014-Oct-22 07:30N 51°01' E 002°11'0 0.0
2014-Oct-22 06:33N 51°01' E 002°11'0 0.0
2014-Oct-22 05:33N 51°01' E 002°11'0 0.0
2014-Oct-22 04:33N 51°01' E 002°11'0 0.0
2014-Oct-22 03:33N 51°01' E 002°11'0 0.0
2014-Oct-22 02:33N 51°01' E 002°11'0 0.0
2014-Oct-22 01:33N 51°01' E 002°11'0 0.0
2014-Oct-22 00:33N 51°01' E 002°11'0 0.0
2014-Oct-21 23:33N 51°01' E 002°11'0 0.0
2014-Oct-21 22:33N 51°01' E 002°11'0 0.0
2014-Oct-21 21:33N 51°01' E 002°11'0 0.0
2014-Oct-21 20:33N 51°01' E 002°11'0 0.0
2014-Oct-21 19:33N 51°01' E 002°11'0 0.0
2014-Oct-21 18:33N 51°01' E 002°11'0 0.0
2014-Oct-21 17:30N 51°01' E 002°11'0 0.0
2014-Oct-21 16:33N 51°01' E 002°11'0 0.0
2014-Oct-21 15:33N 51°01' E 002°11'0 0.0
2014-Oct-21 14:30N 51°01' E 002°11'0 0.0
2014-Oct-21 13:33N 51°01' E 002°11'0 0.0
2014-Oct-21 12:33N 51°01' E 002°11'0 0.0
2014-Oct-21 11:30N 51°01' E 002°11'0 0.0
2014-Oct-21 10:33N 51°01' E 002°11'0 0.0
2014-Oct-21 09:33N 51°01' E 002°11'0 0.0
2014-Oct-21 08:33N 51°01' E 002°11'0 0.0
2014-Oct-21 07:33N 51°01' E 002°11'0 0.0
2014-Oct-21 06:33N 51°01' E 002°11'0 0.0
2014-Oct-21 05:33N 51°01' E 002°11'0 0.0
2014-Oct-21 04:33N 51°01' E 002°11'0 0.0
2014-Oct-21 03:30N 51°01' E 002°11'0 0.0
2014-Oct-21 02:33N 51°01' E 002°11'0 0.0
2014-Oct-21 01:30N 51°01' E 002°11'0 0.0
2014-Oct-21 00:30N 51°01' E 002°11'0 0.0
2014-Oct-20 23:33N 51°01' E 002°11'0 0.0
2014-Oct-20 22:33N 51°01' E 002°11'0 0.0
2014-Oct-20 21:33N 51°01' E 002°11'0 0.0
2014-Oct-20 20:24N 51°01' E 002°11'0 0.0
2014-Oct-20 19:33N 51°01' E 002°11'0 0.0
2014-Oct-20 18:33N 51°01' E 002°11'0 0.0
2014-Oct-20 17:33N 51°01' E 002°11'0 0.0
2014-Oct-20 16:33N 51°01' E 002°11'0 0.0
2014-Oct-20 15:33N 51°01' E 002°11'0 0.0
2014-Oct-20 14:33N 51°01' E 002°11'0 0.0
2014-Oct-20 13:33N 51°01' E 002°11'0 0.0
2014-Oct-20 12:33N 51°01' E 002°11'0 0.0
2014-Oct-20 11:33N 51°01' E 002°11'0 0.0
2014-Oct-20 10:33N 51°01' E 002°11'0 0.0
2014-Oct-20 09:33N 51°01' E 002°11'0 0.0
2014-Oct-20 08:27N 51°01' E 002°11'0 0.0
2014-Oct-20 07:30N 51°01' E 002°11'0 0.0
2014-Oct-20 06:30N 51°01' E 002°11'0 0.0
2014-Oct-20 05:30N 51°01' E 002°11'0 0.0
2014-Oct-20 04:33N 51°01' E 002°11'0 0.0
2014-Oct-20 03:33N 51°01' E 002°11'1 0.9
2014-Oct-20 02:34N 51°02' E 002°10'1313.4
2014-Oct-20 01:34N 51°02' E 001°49'  
Track history (hours):
 
Tides and Currents Weather Stations Pressure Air Temp Water Temp Dewpoint Dewpoint Depression Visibility Wind Speed Wind Dir Waves Ship Positions

CMA-CGM Fort Saint Pierre

Last reported at 2014-Oct-30 01:29 UTC. Time now 2014-Nov-01 03:54 UTC.
Position N 37°03' W 030°09'.

Length 197 m; beam 30 m.

Type: Ship (hazmat cat A). MMSI: 226328000.

Date/timePositionNaut miles runAvg speedWind from/ knotsBaromVisibWave heightAir tempDewpointWater temp
2014-Oct-30 01:29N 37°03' W 030°09'1920.6
2014-Oct-30 00:33N 37°12' W 029°48'2020.1
2014-Oct-29 23:33N 37°22' W 029°26'2020.4
2014-Oct-29 22:33N 37°31' W 029°03'2020.0
2014-Oct-29 21:33N 37°41' W 028°41'2019.9
2014-Oct-29 20:34N 37°51' W 028°19'2019.7
2014-Oct-29 19:33N 38°00' W 027°57'2020.0
2014-Oct-29 18:33N 38°10' W 027°35'2020.1
2014-Oct-29 17:33N 38°19' W 027°12'2019.9
2014-Oct-29 16:33N 38°28' W 026°50'2019.9
2014-Oct-29 15:33N 38°37' W 026°27'2019.8
2014-Oct-29 14:33N 38°46' W 026°04'2020.0
2014-Oct-29 13:33N 38°54' W 025°41'90120.0
2014-Oct-27 16:33N 45°25' W 007°26'1919.4
2014-Oct-27 15:33N 45°33' W 007°01'2019.9
2014-Oct-27 14:34N 45°42' W 006°35'2819.3
2014-Oct-27 13:06N 45°54' W 005°59'1319.1
2014-Oct-27 12:27N 45°60' W 005°43'1819.8
2014-Oct-27 11:34N 46°08' W 005°20'2019.9
2014-Oct-27 10:33N 46°16' W 004°54'2020.1
2014-Oct-27 09:33N 46°25' W 004°28'2120.8
2014-Oct-27 08:33N 46°34' W 004°01'2020.5
2014-Oct-27 07:34N 46°43' W 003°34'2020.2
2014-Oct-27 06:33N 46°52' W 003°07'2020.0
2014-Oct-27 05:33N 47°00' W 002°41'1616.1
2014-Oct-27 04:34N 47°08' W 002°20'1211.9
2014-Oct-27 03:32N 47°18' W 002°09'0 0.0
2014-Oct-27 01:03N 47°18' W 002°09'0 0.0
2014-Oct-26 08:34N 47°18' W 002°09'0 0.0
2014-Oct-26 05:27N 47°18' W 002°09'12 1.9
2014-Oct-25 23:19N 47°09' W 002°20'2514.1
2014-Oct-25 21:33N 47°04' W 002°56'2120.6
2014-Oct-25 20:33N 47°13' W 003°24'4220.9
2014-Oct-25 18:34N 47°35' W 004°16'2121.1
2014-Oct-25 17:33N 47°47' W 004°42'2121.0
2014-Oct-25 16:34N 47°58' W 005°08'2020.0
2014-Oct-25 15:33N 48°12' W 005°30'12217.0
2014-Oct-25 08:24N 49°45' W 003°31'1619.4
2014-Oct-25 07:33N 49°53' W 003°09'4619.4
2014-Oct-25 05:12N 50°03' W 002°00'1721.2
2014-Oct-25 04:24N 49°56' W 001°36'4523.5
2014-Oct-25 02:30N 49°39' W 000°32'1819.2
2014-Oct-25 01:33N 49°32' W 000°07'1110.9
2014-Oct-25 00:34N 49°28' E 000°09'0 0.0
2014-Oct-24 23:33N 49°28' E 000°09'0 0.0
2014-Oct-24 22:33N 49°28' E 000°09'0 0.0
2014-Oct-24 21:33N 49°28' E 000°09'0 0.0
2014-Oct-24 20:33N 49°28' E 000°09'0 0.0
2014-Oct-24 19:33N 49°28' E 000°09'0 0.0
2014-Oct-24 18:33N 49°28' E 000°09'0 0.0
2014-Oct-24 17:33N 49°28' E 000°09'0 0.0
2014-Oct-24 16:33N 49°28' E 000°09'0 0.0
2014-Oct-24 15:33N 49°28' E 000°09'0 0.0
2014-Oct-24 14:33N 49°28' E 000°09'0 0.0
2014-Oct-24 13:33N 49°28' E 000°09'0 0.0
2014-Oct-24 12:33N 49°28' E 000°09'0 0.0
2014-Oct-24 11:33N 49°28' E 000°09'0 0.0
2014-Oct-24 10:33N 49°28' E 000°09'0 0.0
2014-Oct-24 09:33N 49°28' E 000°09'0 0.0
2014-Oct-24 08:33N 49°28' E 000°09'0 0.0
2014-Oct-24 07:33N 49°28' E 000°09'0 0.0
2014-Oct-24 06:33N 49°28' E 000°09'0 0.0
2014-Oct-24 05:30N 49°28' E 000°09'0 0.0
2014-Oct-24 04:33N 49°28' E 000°09'0 0.0
2014-Oct-24 03:33N 49°28' E 000°09'0 0.0
2014-Oct-24 02:33N 49°28' E 000°09'0 0.0
2014-Oct-24 01:33N 49°28' E 000°09'0 0.0
2014-Oct-24 00:33N 49°28' E 000°09'0 0.0
2014-Oct-23 23:33N 49°28' E 000°09'1 1.0
2014-Oct-23 22:33N 49°28' E 000°08'2 2.3
2014-Oct-23 21:33N 49°26' E 000°07'1212.1
2014-Oct-23 20:33N 49°27' E 000°26'7 6.4
2014-Oct-23 19:28N 49°26' E 000°36'3 0.2
2014-Oct-22 20:33N 49°28' E 000°32'1211.8
2014-Oct-22 19:33N 49°26' E 000°14'1211.6
2014-Oct-22 18:34N 49°28' W 000°03'1211.8
2014-Oct-22 17:34N 49°39' W 000°11'4521.6
2014-Oct-22 15:28N 50°24' W 000°06'2122.6
2014-Oct-22 14:34N 50°33' E 000°23'2922.5
2014-Oct-22 13:17N 50°48' E 001°02'1521.3
2014-Oct-22 12:34N 50°57' E 001°21'1515.2
2014-Oct-22 11:34N 51°02' E 001°44'1515.5
2014-Oct-22 10:33N 51°03' E 002°09'3 2.4
2014-Oct-22 09:30N 51°01' E 002°11'0 0.0
2014-Oct-22 08:33N 51°01' E 002°11'0 0.0
2014-Oct-22 07:30N 51°01' E 002°11'0 0.0
2014-Oct-22 06:33N 51°01' E 002°11'0 0.0
2014-Oct-22 05:33N 51°01' E 002°11'0 0.0
2014-Oct-22 04:33N 51°01' E 002°11'0 0.0
2014-Oct-22 03:33N 51°01' E 002°11'0 0.0
2014-Oct-22 02:33N 51°01' E 002°11'0 0.0
2014-Oct-22 01:33N 51°01' E 002°11'0 0.0
2014-Oct-22 00:33N 51°01' E 002°11'0 0.0
2014-Oct-21 23:33N 51°01' E 002°11'0 0.0
2014-Oct-21 22:33N 51°01' E 002°11'0 0.0
2014-Oct-21 21:33N 51°01' E 002°11'0 0.0
2014-Oct-21 20:33N 51°01' E 002°11'0 0.0
2014-Oct-21 19:33N 51°01' E 002°11'0 0.0
2014-Oct-21 18:33N 51°01' E 002°11'0 0.0
2014-Oct-21 17:30N 51°01' E 002°11'0 0.0
2014-Oct-21 16:33N 51°01' E 002°11'0 0.0
2014-Oct-21 15:33N 51°01' E 002°11'0 0.0
2014-Oct-21 14:30N 51°01' E 002°11'0 0.0
2014-Oct-21 13:33N 51°01' E 002°11'0 0.0
2014-Oct-21 12:33N 51°01' E 002°11'0 0.0
2014-Oct-21 11:30N 51°01' E 002°11'0 0.0
2014-Oct-21 10:33N 51°01' E 002°11'0 0.0
2014-Oct-21 09:33N 51°01' E 002°11'0 0.0
2014-Oct-21 08:33N 51°01' E 002°11'0 0.0
2014-Oct-21 07:33N 51°01' E 002°11'0 0.0
2014-Oct-21 06:33N 51°01' E 002°11'0 0.0
2014-Oct-21 05:33N 51°01' E 002°11'0 0.0
2014-Oct-21 04:33N 51°01' E 002°11'0 0.0
2014-Oct-21 03:30N 51°01' E 002°11'0 0.0
2014-Oct-21 02:33N 51°01' E 002°11'0 0.0
2014-Oct-21 01:30N 51°01' E 002°11'0 0.0
2014-Oct-21 00:30N 51°01' E 002°11'0 0.0
2014-Oct-20 23:33N 51°01' E 002°11'0 0.0
2014-Oct-20 22:33N 51°01' E 002°11'0 0.0
2014-Oct-20 21:33N 51°01' E 002°11'0 0.0
2014-Oct-20 20:24N 51°01' E 002°11'0 0.0
2014-Oct-20 19:33N 51°01' E 002°11'0 0.0
2014-Oct-20 18:33N 51°01' E 002°11'0 0.0
2014-Oct-20 17:33N 51°01' E 002°11'0 0.0
2014-Oct-20 16:33N 51°01' E 002°11'0 0.0
2014-Oct-20 15:33N 51°01' E 002°11'0 0.0
2014-Oct-20 14:33N 51°01' E 002°11'0 0.0
2014-Oct-20 13:33N 51°01' E 002°11'0 0.0
2014-Oct-20 12:33N 51°01' E 002°11'0 0.0
2014-Oct-20 11:33N 51°01' E 002°11'0 0.0
2014-Oct-20 10:33N 51°01' E 002°11'0 0.0
2014-Oct-20 09:33N 51°01' E 002°11'0 0.0
2014-Oct-20 08:27N 51°01' E 002°11'0 0.0
2014-Oct-20 07:30N 51°01' E 002°11'0 0.0
2014-Oct-20 06:30N 51°01' E 002°11'0 0.0
2014-Oct-20 05:30N 51°01' E 002°11'0 0.0
2014-Oct-20 04:33N 51°01' E 002°11'0 0.0
2014-Oct-20 03:33N 51°01' E 002°11'1 0.9
2014-Oct-20 02:34N 51°02' E 002°10'1313.4
2014-Oct-20 01:34N 51°02' E 001°49'  

Dump ship's entire track history